[[{"header":{"parameterUnit":"m.s-1","parameterCategory":1,"la1":30.2991,"la2":30.254,"lo1":-89.0895,"lo2":-89.0444,"dy":0.0017,"dx":0.0017,"nx":28,"ny":28,"refTime":"2023-04-27T21:00:00:Z","depth":0,"parameterNumber":2,"parameterNumberName":"U-component_of_WINDS"},"data":[0,0,0,0,0,0,0,0,0,0,0,0,0,0,0,0,0,0,0,0,0,0,0,0,0,0,0,0,0,0,0,0,0,0,0,0,0,0,0,0,0,0,0,0,0,0,0,0,0,0,0,0,0,0,0,0,0,0,0.737,0.7369,0,0.7288,0.7287,0.7286,0.7268,0.7268,0.7269,0.7269,0.7189,0.7186,0.7184,0,0,0,0,0,0,0,0,0,0,0,0,0,0.7515,0.7512,0.737,0.7369,0.7368,0.7288,0.7287,0.7286,0.7268,0.7268,0.7269,0.727,0.719,0.7187,0.7183,0,0,0,0,0,0,0,0,0,0,0,0,0,0.7444,0.7511,0.737,0.7349,0.7346,0.7288,0.7287,0.7285,0.7267,0.7268,0.7269,0.727,0.7191,0.7187,0.7183,0.7141,0,0,0.7171,0.7169,0,0,0,0,0,0,0,0,0.7448,0.7439,0.7353,0.735,0.7347,0.7289,0.7308,0.7237,0.7267,0.7297,0.7269,0.727,0.7222,0.7215,0.7198,0.7137,0.7134,0.717,0.7168,0.7166,0.7165,0,0,0,0,0,0,0,0.7453,0.7443,0.7337,0.7352,0.7348,0.7345,0.7336,0.7295,0.7256,0.7295,0.7293,0.7284,0.722,0.7202,0.7196,0.7133,0.7171,0.7167,0.7164,0.7163,0.7035,0.7034,0,0,0,0,0,0,0.7461,0.7447,0.734,0.7335,0.7401,0.7342,0.7332,0.7307,0.7256,0.7249,0.7283,0.7283,0.7208,0.7201,0.7193,0.7142,0.7166,0.7163,0.716,0.7036,0.7035,0.7034,0,0,0,0,0,0,0.7465,0.7452,0.7343,0.739,0.7376,0.7338,0.731,0.7305,0.7286,0.7247,0.7241,0.7271,0.7209,0.7199,0.7154,0.7139,0.7161,0.7157,0.7037,0.7036,0.7035,0.7038,0,0,0,0,0,0,0.7469,0.7453,0.7436,0.739,0.7374,0.7304,0.7309,0.7302,0.7279,0.7278,0.7234,0.7228,0.7209,0.716,0.715,0.7134,0.7154,0.7039,0.7037,0.7035,0.704,0.7037,0.7035,0,0,0,0,0,0.7474,0.744,0.7435,0.7422,0.7351,0.7304,0.7294,0.7272,0.7278,0.7261,0.7236,0.7229,0.7142,0.7156,0.7144,0.7126,0.704,0.7037,0.7035,0.704,0.7038,0.7035,0,0,0,0,0,0,0.7486,0.7434,0.7427,0.7378,0.7345,0.7301,0.7278,0.7269,0.7235,0.7236,0.7211,0.7201,0.7159,0.7138,0.7154,0.7084,0.7091,0.7087,0.7099,0.7096,0.7094,0.7101,0.7151,0,0,0,0,0,0.7483,0.7448,0.7404,0.7365,0.7349,0.7316,0.7295,0.728,0.7246,0.7233,0.7204,0.7173,0.7138,0.7116,0.7082,0.7036,0.7028,0.7018,0.7016,0.7015,0.7011,0.6988,0.6984,0.7027,0.7027,0.7027,0,0,0.7476,0.7443,0.7423,0.7367,0.734,0.7305,0.7305,0.7268,0.7243,0.7227,0.7184,0.7162,0.7125,0.708,0.7059,0.7062,0.6997,0.7012,0.7011,0.7008,0.6985,0.6981,0.6977,0.7025,0.7026,0.7026,0,0,0.7446,0.7417,0.7382,0.7355,0.7314,0.7293,0.7284,0.7241,0.7226,0.7181,0.717,0.714,0.708,0.7055,0.7034,0.6996,0.699,0.6986,0.6975,0.6952,0.6949,0.6946,0.6934,0.6929,0.6982,0.6982,0.6982,0,0.7444,0.739,0.7365,0.7329,0.7305,0.7289,0.7254,0.7229,0.718,0.7165,0.7168,0.7094,0.7068,0.7018,0.7008,0.6992,0.6983,0.6991,0.6951,0.6948,0.6945,0.6933,0.6928,0.6982,0.6982,0.6982,0.6982,0,0.7389,0.7352,0.7329,0.7281,0.7254,0.7219,0.7191,0.7167,0.7155,0.7135,0.7091,0.7058,0.7018,0.7005,0.6993,0.6954,0.6957,0.6956,0.6963,0.6941,0.6929,0.6925,0.6982,0.6982,0.6982,0.6982,0,0,0.7364,0.7304,0.7296,0.7274,0.7228,0.72,0.7165,0.7125,0.7106,0.7073,0.7044,0.6994,0.6993,0.697,0.6955,0.6935,0.6909,0.6937,0.6935,0.6934,0.6865,0.6867,0.6862,0.6904,0.6903,0.6902,0.6869,0,0.733,0.7265,0.7243,0.719,0.7157,0.7141,0.7111,0.708,0.706,0.703,0.7008,0.6974,0.6975,0.6961,0.694,0.6916,0.6895,0.6918,0.6878,0.6877,0.6889,0.6856,0.6857,0.6827,0.6864,0.6863,0.6863,0,0.7281,0.7247,0.719,0.715,0.7135,0.7108,0.707,0.7041,0.7007,0.6994,0.6968,0.6955,0.692,0.6928,0.688,0.6896,0.6878,0.6865,0.6863,0.6859,0.6869,0.6853,0.6817,0.6813,0.6855,0.6856,0.6856,0,0.7271,0.721,0.7169,0.7151,0.7103,0.7084,0.7063,0.703,0.7008,0.6975,0.6961,0.6925,0.6906,0.6879,0.6857,0.6865,0.6811,0.6818,0.6801,0.6802,0.6791,0.6792,0.6754,0.6778,0.6778,0.6778,0.6778,0,0.7235,0.7202,0.7164,0.7139,0.7102,0.7077,0.7041,0.7019,0.699,0.6962,0.6946,0.692,0.6892,0.6863,0.6846,0.681,0.6801,0.6791,0.6787,0.6792,0.6794,0.6781,0.6783,0.6777,0.6777,0.6777,0.6778,0,0.7217,0.719,0.7145,0.7103,0.7091,0.7066,0.703,0.7006,0.6986,0.695,0.694,0.6909,0.6874,0.6849,0.6804,0.6793,0.6754,0.675,0.6765,0.6763,0.6749,0.6751,0.6701,0.6694,0.6723,0.6722,0.6722,0,0.7197,0.7171,0.7126,0.7105,0.7084,0.7051,0.7029,0.7004,0.6981,0.6941,0.6922,0.6886,0.6856,0.6801,0.6775,0.6741,0.6736,0.6721,0.6731,0.6738,0.6737,0.674,0.6738,0.672,0.672,0.672,0.672,0,0.7164,0.7152,0.7119,0.7082,0.7056,0.7026,0.6995,0.698,0.695,0.6925,0.6889,0.6866,0.682,0.6785,0.6748,0.6729,0.672,0.6717,0.6711,0.6717,0.6728,0.6723,0.6762,0.6718,0.6718,0.6718,0.6718,0.6718,0.7145,0.7122,0.7087,0.7051,0.7026,0.6998,0.6974,0.695,0.6919,0.6879,0.6867,0.683,0.6798,0.6748,0.6728,0.6699,0.67,0.6692,0.669,0.6689,0.669,0.6732,0.6693,0.6693,0.6693,0.6693,0.6693,0,0.7112,0.7089,0.7057,0.7015,0.6988,0.698,0.6947,0.6925,0.6892,0.6863,0.6833,0.6792,0.6759,0.673,0.6695,0.6678,0.6673,0.667,0.6672,0.6667,0.669,0.6699,0.6675,0.6675,0.6675,0.6675,0.6675,0.6675,0.7092,0.7053,0.7037,0.6986,0.6963,0.6926,0.6908,0.6883,0.6859,0.6814,0.6786,0.6767,0.6738,0.6701,0.6671,0.6663,0.6652,0.665,0.6641,0.6663,0.6666,0.6668,0.6676,0.6647,0.6647,0.6621,0.6621,0.6621]},{"header":{"parameterUnit":"m.s-1","parameterCategory":1,"la1":30.2991,"la2":30.254,"lo1":-89.0895,"lo2":-89.0444,"dy":0.0017,"dx":0.0017,"nx":28,"ny":28,"refTime":"2023-04-27T21:00:00:Z","depth":0,"parameterNumber":3,"parameterNumberName":"V-component_of_WINDS"},"data":[0,0,0,0,0,0,0,0,0,0,0,0,0,0,0,0,0,0,0,0,0,0,0,0,0,0,0,0,0,0,0,0,0,0,0,0,0,0,0,0,0,0,0,0,0,0,0,0,0,0,0,0,0,0,0,0,0,0,2.6191,2.6193,0,2.6406,2.6409,2.6411,2.6447,2.6445,2.6444,2.6442,2.6661,2.6669,2.6676,0,0,0,0,0,0,0,0,0,0,0,0,0,2.5804,2.5811,2.6191,2.6193,2.6196,2.6406,2.6409,2.6412,2.6448,2.6445,2.6443,2.6441,2.6659,2.6668,2.6677,0,0,0,0,0,0,0,0,0,0,0,0,0,2.5991,2.5813,2.619,2.6239,2.6246,2.6405,2.6409,2.6413,2.6448,2.6445,2.6443,2.644,2.6656,2.6667,2.6678,2.6803,0,0,2.6713,2.6718,0,0,0,0,0,0,0,0,2.598,2.6005,2.6229,2.6236,2.6244,2.6397,2.6353,2.6544,2.6449,2.6371,2.6442,2.6439,2.6576,2.6593,2.664,2.6814,2.6823,2.6714,2.6721,2.6726,2.6729,0,0,0,0,0,0,0,2.5967,2.5996,2.6276,2.6233,2.6241,2.6248,2.6272,2.6389,2.6486,2.6378,2.6381,2.6406,2.6579,2.6629,2.6645,2.6826,2.6713,2.6724,2.6731,2.6735,2.7105,2.7108,0,0,0,0,0,0,2.5946,2.5985,2.6269,2.6282,2.6103,2.6258,2.6284,2.6351,2.6485,2.6503,2.6408,2.6407,2.6611,2.6632,2.6653,2.6804,2.6725,2.6736,2.6743,2.7102,2.7106,2.7109,0,0,0,0,0,0,2.5938,2.5971,2.626,2.6135,2.6172,2.6267,2.6342,2.6356,2.6406,2.6508,2.6525,2.6442,2.6609,2.6637,2.6764,2.6812,2.6741,2.6751,2.7099,2.7104,2.7108,2.7109,0,0,0,0,0,0,2.5926,2.5968,2.6019,2.6135,2.6179,2.637,2.6345,2.6363,2.6426,2.6426,2.6544,2.6561,2.6609,2.6747,2.6775,2.6826,2.676,2.7095,2.7101,2.7106,2.7105,2.7113,2.7119,0,0,0,0,0,2.5912,2.6012,2.6021,2.6055,2.6244,2.6373,2.6397,2.6452,2.643,2.648,2.6544,2.6557,2.6802,2.676,2.6792,2.6847,2.7092,2.7099,2.7106,2.7101,2.7111,2.7119,0,0,0,0,0,0,2.59,2.6028,2.604,2.6181,2.6265,2.6379,2.6444,2.6461,2.6554,2.655,2.6613,2.6639,2.6761,2.6817,2.6768,2.6971,2.6945,2.6959,2.6931,2.6941,2.6948,2.6931,2.677,0,0,0,0,0,2.5913,2.6008,2.6115,2.6228,2.627,2.6349,2.6407,2.6441,2.6531,2.6568,2.6641,2.6727,2.6823,2.6885,2.6979,2.7112,2.7136,2.7166,2.7173,2.7178,2.7189,2.7257,2.727,2.7132,2.7132,2.7132,0,0,2.5942,2.6024,2.6081,2.6227,2.6297,2.6391,2.638,2.6482,2.6551,2.6583,2.6706,2.6762,2.6862,2.6991,2.7051,2.7041,2.7232,2.7187,2.7191,2.7199,2.7265,2.7278,2.729,2.7136,2.7136,2.7135,0,0,2.6042,2.6116,2.6215,2.6284,2.6388,2.6439,2.6462,2.6572,2.661,2.6735,2.6758,2.6841,2.7006,2.7074,2.713,2.7247,2.7261,2.7276,2.7315,2.738,2.7391,2.7401,2.7438,2.7451,2.7287,2.7287,2.7287,0,2.6065,2.621,2.6264,2.6363,2.6424,2.6456,2.6554,2.6618,2.6748,2.6788,2.6775,2.6977,2.7048,2.7189,2.7217,2.7263,2.7288,2.7264,2.7385,2.7395,2.7405,2.7442,2.7456,2.7288,2.7288,2.7288,2.7287,0,2.6229,2.6328,2.6396,2.6518,2.6587,2.6686,2.6752,2.6815,2.684,2.6891,2.7013,2.7097,2.7206,2.7242,2.727,2.7386,2.7375,2.7373,2.7347,2.7418,2.7453,2.7468,2.7289,2.7289,2.7288,2.7288,0,0,2.6332,2.6478,2.6502,2.6554,2.6669,2.6745,2.6842,2.6947,2.6997,2.7084,2.7164,2.7299,2.7295,2.7358,2.7393,2.7451,2.7531,2.744,2.7443,2.7451,2.7658,2.7658,2.7673,2.7541,2.7544,2.7546,2.7648,0,2.6443,2.6618,2.6666,2.6813,2.6902,2.6929,2.7012,2.7089,2.7138,2.7218,2.7272,2.7365,2.7355,2.7392,2.745,2.7509,2.7573,2.7503,2.7613,2.7616,2.7585,2.7692,2.7694,2.7787,2.7663,2.7665,2.7667,0,2.6598,2.6684,2.6839,2.6935,2.6974,2.7049,2.7145,2.7223,2.7308,2.7339,2.7406,2.7433,2.7531,2.75,2.7632,2.7583,2.763,2.7665,2.767,2.7681,2.7645,2.7704,2.7819,2.7831,2.769,2.7688,2.7686,0,2.6651,2.6807,2.6918,2.6963,2.7079,2.7129,2.718,2.7263,2.732,2.7404,2.7441,2.7535,2.7586,2.7656,2.7706,2.768,2.7833,2.7807,2.7858,2.7856,2.7889,2.7886,2.8011,2.7923,2.7923,2.7922,2.7922,0,2.677,2.6862,2.6943,2.7011,2.7113,2.7166,2.7265,2.7317,2.7388,2.7464,2.7494,2.7564,2.7627,2.7704,2.7744,2.7845,2.7869,2.7894,2.7903,2.789,2.7886,2.7921,2.7915,2.7926,2.7925,2.7925,2.7924,0,2.6848,2.6906,2.7028,2.7126,2.7152,2.7223,2.7305,2.737,2.7417,2.7512,2.7538,2.7611,2.7703,2.776,2.7878,2.7904,2.8013,2.8022,2.7984,2.7988,2.8034,2.8028,2.8184,2.8205,2.8105,2.8106,2.8107,0,2.6919,2.699,2.7094,2.7146,2.7196,2.7281,2.7339,2.7391,2.7449,2.7547,2.7599,2.7693,2.777,2.7915,2.7978,2.8066,2.8074,2.8123,2.8088,2.8071,2.8071,2.8065,2.807,2.8128,2.8129,2.813,2.813,0,2.7037,2.706,2.7143,2.7233,2.73,2.7374,2.7448,2.7488,2.7552,2.7615,2.7708,2.7768,2.7885,2.7976,2.8068,2.8117,2.8133,2.814,2.8156,2.8143,2.8117,2.8128,2.7997,2.8137,2.8136,2.8136,2.8135,2.8135,2.7112,2.7174,2.7254,2.7343,2.7402,2.7469,2.7533,2.7586,2.7665,2.7764,2.7789,2.7885,2.7962,2.8087,2.8137,2.8211,2.8204,2.8228,2.8234,2.8238,2.8237,2.8106,2.8229,2.8229,2.8228,2.8228,2.8228,0,2.7228,2.7279,2.736,2.746,2.7528,2.7536,2.7616,2.7672,2.7756,2.7827,2.79,2.8004,2.809,2.8157,2.8245,2.829,2.8299,2.8311,2.8308,2.8318,2.8241,2.8217,2.8302,2.8302,2.8302,2.8302,2.8302,2.8302,2.7296,2.74,2.7431,2.7562,2.7613,2.7708,2.7752,2.7811,2.7867,2.7981,2.8052,2.8095,2.8162,2.8253,2.8331,2.8348,2.8377,2.8387,2.8405,2.8332,2.8324,2.8316,2.8294,2.8394,2.8394,2.8476,2.8477,2.8477]}]]